Time,TemperatureF,DewpointF,PressureIn,WindDirection,WindDirectionDegrees,WindSpeedMPH,WindSpeedGustMPH,Humidity,HourlyPrecipIn,Conditions,Clouds,dailyrainin,SoftwareType,DateUTC
2013-01-15 00:02:00,28.3,24.0,30.44,NNW,338,0.0,0.2,84,0.00,,,0.00,WUHU216HW,2013-01-15 08:02:00,
2013-01-15 00:07:00,28.1,23.6,30.44,NNW,338,0.0,0.0,83,0.00,,,0.00,WUHU216HW,2013-01-15 08:07:00,
2013-01-15 00:12:00,28.1,23.6,30.44,NNW,338,0.0,0.0,83,0.00,,,0.00,WUHU216HW,2013-01-15 08:12:00,
2013-01-15 00:17:00,28.1,23.9,30.43,North,0,0.0,0.0,84,0.00,,,0.00,WUHU216HW,2013-01-15 08:17:00,
2013-01-15 00:22:00,27.9,23.7,30.43,West,270,0.0,0.4,84,0.00,,,0.00,WUHU216HW,2013-01-15 08:22:00,
2013-01-15 00:27:00,27.9,23.7,30.44,West,270,0.0,0.4,84,0.00,,,0.00,WUHU216HW,2013-01-15 08:27:00,
2013-01-15 00:32:00,27.9,23.9,30.43,East,90,0.0,0.4,85,0.00,,,0.00,WUHU216HW,2013-01-15 08:32:00,
2013-01-15 00:37:00,27.9,23.7,30.43,NE,45,0.0,0.4,84,0.00,,,0.00,WUHU216HW,2013-01-15 08:37:00,
2013-01-15 00:42:00,27.7,23.5,30.43,ENE,68,0.0,0.0,84,0.00,,,0.00,WUHU216HW,2013-01-15 08:42:00,
2013-01-15 00:47:00,27.7,23.8,30.43,West,270,0.0,0.2,85,0.00,,,0.00,WUHU216HW,2013-01-15 08:47:00,
2013-01-15 00:52:00,27.7,23.5,30.44,NNE,23,0.0,0.2,84,0.00,,,0.00,WUHU216HW,2013-01-15 08:52:00,
2013-01-15 00:57:00,27.5,23.3,30.43,North,0,0.0,0.0,84,0.00,,,0.00,WUHU216HW,2013-01-15 08:57:00,
2013-01-15 01:02:00,27.7,23.5,30.43,NNW,338,0.0,0.0,84,0.00,,,0.00,WUHU216HW,2013-01-15 09:02:00,
2013-01-15 01:08:00,27.5,23.6,30.44,North,0,0.0,0.0,85,0.00,,,0.00,WUHU216HW,2013-01-15 09:08:00,
2013-01-15 01:13:00,27.5,23.6,30.44,NNW,338,0.0,0.0,85,0.00,,,0.00,WUHU216HW,2013-01-15 09:13:00,
2013-01-15 01:18:00,27.4,23.4,30.44,North,0,0.0,0.0,85,0.00,,,0.00,WUHU216HW,2013-01-15 09:18:00,
2013-01-15 01:23:00,27.2,23.2,30.44,North,0,0.0,0.0,85,0.00,,,0.00,WUHU216HW,2013-01-15 09:23:00,
2013-01-15 01:28:00,27.2,23.2,30.44,North,0,0.0,0.0,85,0.00,,,0.00,WUHU216HW,2013-01-15 09:28:00,
2013-01-15 01:33:00,27.4,23.4,30.45,NW,315,0.0,0.0,85,0.00,,,0.00,WUHU216HW,2013-01-15 09:33:00,
2013-01-15 01:38:00,27.2,23.2,30.45,NE,45,0.0,0.4,85,0.00,,,0.00,WUHU216HW,2013-01-15 09:38:00,
2013-01-15 01:43:00,27.0,23.0,30.45,ENE,68,0.0,0.4,85,0.00,,,0.00,WUHU216HW,2013-01-15 09:43:00,
2013-01-15 01:48:00,27.0,23.0,30.45,ENE,68,0.0,0.4,85,0.00,,,0.00,WUHU216HW,2013-01-15 09:48:00,
2013-01-15 01:53:00,27.0,23.0,30.46,ENE,68,0.0,0.4,85,0.00,,,0.00,WUHU216HW,2013-01-15 09:53:00,
2013-01-15 01:58:00,27.2,23.5,30.46,ESE,113,0.0,0.4,86,0.00,,,0.00,WUHU216HW,2013-01-15 09:58:00,
2013-01-15 02:03:00,27.4,23.7,30.45,NNE,23,0.0,0.0,86,0.00,,,0.00,WUHU216HW,2013-01-15 10:03:00,
2013-01-15 02:08:00,27.4,23.4,30.45,NNE,23,0.4,0.4,85,0.00,,,0.00,WUHU216HW,2013-01-15 10:08:00,
2013-01-15 02:13:00,27.2,23.2,30.46,NNE,23,0.0,0.4,85,0.00,,,0.00,WUHU216HW,2013-01-15 10:13:00,
2013-01-15 02:18:00,27.2,23.2,30.46,North,0,0.0,0.4,85,0.00,,,0.00,WUHU216HW,2013-01-15 10:18:00,
2013-01-15 02:23:00,27.0,23.0,30.46,North,0,0.0,0.4,85,0.00,,,0.00,WUHU216HW,2013-01-15 10:23:00,
2013-01-15 02:28:00,27.0,23.0,30.45,NNE,23,0.0,0.4,85,0.00,,,0.00,WUHU216HW,2013-01-15 10:28:00,
2013-01-15 02:33:00,27.0,23.0,30.45,NNE,23,0.0,0.0,85,0.00,,,0.00,WUHU216HW,2013-01-15 10:33:00,
2013-01-15 02:38:00,27.0,23.0,30.46,NNW,338,0.0,0.0,85,0.00,,,0.00,WUHU216HW,2013-01-15 10:38:00,
2013-01-15 02:43:00,27.0,23.0,30.46,NE,45,0.0,0.0,85,0.00,,,0.00,WUHU216HW,2013-01-15 10:43:00,
2013-01-15 02:48:00,27.0,23.0,30.46,NNW,338,0.0,0.0,85,0.00,,,0.00,WUHU216HW,2013-01-15 10:48:00,
2013-01-15 02:53:00,27.0,23.0,30.46,WNW,293,0.0,0.0,85,0.00,,,0.00,WUHU216HW,2013-01-15 10:53:00,
2013-01-15 02:58:00,27.0,23.3,30.46,SW,225,0.0,0.4,86,0.00,,,0.00,WUHU216HW,2013-01-15 10:58:00,
2013-01-15 03:03:00,27.4,23.7,30.46,SW,225,0.0,0.4,86,0.00,,,0.00,WUHU216HW,2013-01-15 11:03:00,
2013-01-15 03:08:00,27.5,23.9,30.46,North,0,0.0,0.0,86,0.00,,,0.00,WUHU216HW,2013-01-15 11:08:00,
2013-01-15 03:13:00,27.5,23.9,30.45,SE,135,0.0,0.0,86,0.00,,,0.00,WUHU216HW,2013-01-15 11:13:00,
2013-01-15 03:18:00,27.5,24.1,30.46,SSW,203,0.4,0.4,87,0.00,,,0.00,WUHU216HW,2013-01-15 11:18:00,
2013-01-15 03:23:00,27.7,24.3,30.46,SE,135,0.0,0.4,87,0.00,,,0.00,WUHU216HW,2013-01-15 11:23:00,
2013-01-15 03:28:00,27.7,24.3,30.46,ENE,68,0.2,0.4,87,0.00,,,0.00,WUHU216HW,2013-01-15 11:28:00,
2013-01-15 03:33:00,27.9,24.5,30.46,East,90,0.0,0.4,87,0.00,,,0.00,WUHU216HW,2013-01-15 11:33:00,
2013-01-15 03:38:00,27.7,24.0,30.46,East,90,0.0,0.2,86,0.00,,,0.00,WUHU216HW,2013-01-15 11:38:00,
2013-01-15 03:43:00,27.7,24.0,30.46,ENE,68,0.0,0.2,86,0.00,,,0.00,WUHU216HW,2013-01-15 11:43:00,
2013-01-15 03:48:00,27.7,24.0,30.46,East,90,0.0,0.2,86,0.00,,,0.00,WUHU216HW,2013-01-15 11:48:00,
2013-01-15 03:53:00,27.5,23.9,30.46,NNE,23,0.0,0.0,86,0.00,,,0.00,WUHU216HW,2013-01-15 11:53:00,
2013-01-15 03:58:00,27.4,23.7,30.46,ESE,113,0.0,0.0,86,0.00,,,0.00,WUHU216HW,2013-01-15 11:58:00,
2013-01-15 04:03:00,27.4,23.9,30.45,East,90,0.0,0.0,87,0.00,,,0.00,WUHU216HW,2013-01-15 12:03:00,
2013-01-15 04:08:00,27.5,23.9,30.45,ESE,113,0.0,0.0,86,0.00,,,0.00,WUHU216HW,2013-01-15 12:08:00,
2013-01-15 04:13:00,27.5,23.9,30.46,ESE,113,0.0,0.0,86,0.00,,,0.00,WUHU216HW,2013-01-15 12:13:00,
2013-01-15 04:18:00,27.5,23.9,30.46,SSW,203,0.0,0.0,86,0.00,,,0.00,WUHU216HW,2013-01-15 12:18:00,
2013-01-15 04:23:00,27.4,23.7,30.46,East,90,0.0,0.0,86,0.00,,,0.00,WUHU216HW,2013-01-15 12:23:00,
2013-01-15 04:28:00,27.2,23.5,30.46,ESE,113,0.0,0.0,86,0.00,,,0.00,WUHU216HW,2013-01-15 12:28:00,
2013-01-15 04:33:00,27.2,23.5,30.46,NE,45,0.0,0.0,86,0.00,,,0.00,WUHU216HW,2013-01-15 12:33:00,
2013-01-15 04:38:00,27.0,23.3,30.46,NE,45,0.0,0.0,86,0.00,,,0.00,WUHU216HW,2013-01-15 12:38:00,
2013-01-15 04:43:00,26.8,23.1,30.46,NE,45,0.0,0.0,86,0.00,,,0.00,WUHU216HW,2013-01-15 12:43:00,
2013-01-15 04:48:00,26.6,23.0,30.46,NE,45,0.0,0.0,86,0.00,,,0.00,WUHU216HW,2013-01-15 12:48:00,
2013-01-15 04:53:00,26.5,22.8,30.46,NE,45,0.0,0.0,86,0.00,,,0.00,WUHU216HW,2013-01-15 12:53:00,
2013-01-15 04:58:00,26.5,22.8,30.46,NNE,23,0.0,0.0,86,0.00,,,0.00,WUHU216HW,2013-01-15 12:58:00,
2013-01-15 05:03:00,26.5,22.8,30.46,NNE,23,0.0,0.0,86,0.00,,,0.00,WUHU216HW,2013-01-15 13:03:00,
2013-01-15 05:08:00,26.3,22.6,30.46,NNE,23,0.0,0.0,86,0.00,,,0.00,WUHU216HW,2013-01-15 13:08:00,
2013-01-15 05:13:00,26.3,22.6,30.46,NNE,23,0.0,0.0,86,0.00,,,0.00,WUHU216HW,2013-01-15 13:13:00,
2013-01-15 05:18:00,26.3,22.6,30.46,West,270,0.0,0.7,86,0.00,,,0.00,WUHU216HW,2013-01-15 13:18:00,
2013-01-15 05:23:00,26.3,22.6,30.46,NNW,338,0.0,0.7,86,0.00,,,0.00,WUHU216HW,2013-01-15 13:23:00,
2013-01-15 05:28:00,25.9,22.3,30.46,NNW,338,0.0,0.2,86,0.00,,,0.00,WUHU216HW,2013-01-15 13:28:00,
2013-01-15 05:33:00,25.9,22.6,30.46,West,270,0.0,0.0,87,0.00,,,0.00,WUHU216HW,2013-01-15 13:33:00,
2013-01-15 05:38:00,26.1,22.8,30.46,West,270,0.0,0.0,87,0.00,,,0.00,WUHU216HW,2013-01-15 13:38:00,
2013-01-15 05:43:00,26.1,22.8,30.46,North,0,0.0,0.0,87,0.00,,,0.00,WUHU216HW,2013-01-15 13:43:00,
2013-01-15 05:48:00,25.9,22.6,30.46,North,0,0.0,0.0,87,0.00,,,0.00,WUHU216HW,2013-01-15 13:48:00,
2013-01-15 05:53:00,26.1,22.8,30.46,North,0,0.0,0.0,87,0.00,,,0.00,WUHU216HW,2013-01-15 13:53:00,
2013-01-15 05:58:00,26.1,22.8,30.46,West,270,0.0,0.0,87,0.00,,,0.00,WUHU216HW,2013-01-15 13:58:00,
2013-01-15 06:03:00,26.1,22.8,30.46,North,0,0.0,0.0,87,0.00,,,0.00,WUHU216HW,2013-01-15 14:03:00,
2013-01-15 06:08:00,26.1,22.8,30.46,SE,135,0.0,0.0,87,0.00,,,0.00,WUHU216HW,2013-01-15 14:08:00,
2013-01-15 06:13:00,25.9,22.6,30.46,WSW,248,0.0,0.0,87,0.00,,,0.00,WUHU216HW,2013-01-15 14:13:00,
2013-01-15 06:18:00,26.1,22.8,30.47,SSE,158,0.0,0.0,87,0.00,,,0.00,WUHU216HW,2013-01-15 14:18:00,
2013-01-15 06:23:00,26.1,22.8,30.47,ESE,113,0.0,0.0,87,0.00,,,0.00,WUHU216HW,2013-01-15 14:23:00,
2013-01-15 06:28:00,26.1,22.8,30.47,ENE,68,0.0,0.0,87,0.00,,,0.00,WUHU216HW,2013-01-15 14:28:00,
2013-01-15 06:33:00,25.9,22.6,30.47,ENE,68,0.0,0.0,87,0.00,,,0.00,WUHU216HW,2013-01-15 14:33:00,
2013-01-15 06:38:00,26.1,22.8,30.47,West,270,0.0,0.4,87,0.00,,,0.00,WUHU216HW,2013-01-15 14:38:00,
2013-01-15 06:43:00,26.1,22.8,30.47,NE,45,0.0,0.4,87,0.00,,,0.00,WUHU216HW,2013-01-15 14:43:00,
2013-01-15 06:48:00,26.1,22.8,30.47,NE,45,0.0,0.2,87,0.00,,,0.00,WUHU216HW,2013-01-15 14:48:00,
2013-01-15 06:53:00,26.1,22.8,30.48,SE,135,0.0,0.2,87,0.00,,,0.00,WUHU216HW,2013-01-15 14:53:00,
2013-01-15 06:58:00,25.9,22.6,30.47,SE,135,0.0,0.2,87,0.00,,,0.00,WUHU216HW,2013-01-15 14:58:00,
2013-01-15 07:03:00,25.7,22.4,30.48,SE,135,0.0,0.0,87,0.00,,,0.00,WUHU216HW,2013-01-15 15:03:00,
2013-01-15 07:08:00,25.7,22.4,30.48,SE,135,0.0,0.0,87,0.00,,,0.00,WUHU216HW,2013-01-15 15:08:00,
2013-01-15 07:13:00,25.7,22.4,30.48,SE,135,0.0,0.0,87,0.00,,,0.00,WUHU216HW,2013-01-15 15:13:00,
2013-01-15 07:18:00,25.7,22.4,30.48,ENE,68,0.4,0.4,87,0.00,,,0.00,WUHU216HW,2013-01-15 15:18:00,
2013-01-15 07:23:00,25.7,22.4,30.48,NE,45,0.0,0.4,87,0.00,,,0.00,WUHU216HW,2013-01-15 15:23:00,
2013-01-15 07:28:00,26.3,23.2,30.48,SE,135,0.0,0.4,88,0.00,,,0.00,WUHU216HW,2013-01-15 15:28:00,
2013-01-15 07:33:00,26.6,23.6,30.48,SE,135,0.0,0.4,88,0.00,,,0.00,WUHU216HW,2013-01-15 15:33:00,
2013-01-15 07:38:00,27.0,24.0,30.48,ESE,113,0.0,0.0,88,0.00,,,0.00,WUHU216HW,2013-01-15 15:38:00,
2013-01-15 07:43:00,27.2,24.1,30.48,SE,135,0.0,0.0,88,0.00,,,0.00,WUHU216HW,2013-01-15 15:43:00,
2013-01-15 07:48:00,27.2,24.1,30.49,North,0,0.0,0.4,88,0.00,,,0.00,WUHU216HW,2013-01-15 15:48:00,
2013-01-15 07:53:00,27.4,24.3,30.49,North,0,0.0,0.4,88,0.00,,,0.00,WUHU216HW,2013-01-15 15:53:00,
2013-01-15 07:58:00,27.7,24.7,30.49,North,0,0.0,0.0,88,0.00,,,0.00,WUHU216HW,2013-01-15 15:58:00,
2013-01-15 08:03:00,27.9,24.9,30.49,West,270,0.4,0.4,88,0.00,,,0.00,WUHU216HW,2013-01-15 16:03:00,
2013-01-15 08:08:00,28.3,25.2,30.49,NW,315,0.2,0.4,88,0.00,,,0.00,WUHU216HW,2013-01-15 16:08:00,
2013-01-15 08:13:00,28.4,25.4,30.49,NW,315,0.0,0.4,88,0.00,,,0.00,WUHU216HW,2013-01-15 16:13:00,
2013-01-15 08:18:00,29.2,26.6,30.49,NE,45,0.0,0.9,90,0.00,,,0.00,WUHU216HW,2013-01-15 16:18:00,
2013-01-15 08:23:00,29.5,26.7,30.50,NNE,23,0.0,0.9,89,0.00,,,0.00,WUHU216HW,2013-01-15 16:23:00,
2013-01-15 08:28:00,30.2,28.0,30.50,North,0,0.0,0.7,91,0.00,,,0.00,WUHU216HW,2013-01-15 16:28:00,
2013-01-15 08:33:00,31.0,28.7,30.51,North,0,0.2,0.7,91,0.00,,,0.00,WUHU216HW,2013-01-15 16:33:00,
2013-01-15 08:38:00,31.3,28.8,30.51,WSW,248,0.0,0.4,90,0.00,,,0.00,WUHU216HW,2013-01-15 16:38:00,
2013-01-15 08:43:00,31.9,29.3,30.52,WNW,293,0.4,0.9,90,0.00,,,0.00,WUHU216HW,2013-01-15 16:43:00,
2013-01-15 08:48:00,32.2,29.7,30.51,North,0,0.4,0.9,90,0.00,,,0.00,WUHU216HW,2013-01-15 16:48:00,
2013-01-15 08:53:00,32.8,29.9,30.51,North,0,0.0,0.7,89,0.00,,,0.00,WUHU216HW,2013-01-15 16:53:00,
2013-01-15 08:58:00,33.1,29.9,30.51,NNW,338,0.0,0.4,88,0.00,,,0.00,WUHU216HW,2013-01-15 16:58:00,
2013-01-15 09:03:00,33.7,30.2,30.51,WSW,248,0.0,0.4,87,0.00,,,0.00,WUHU216HW,2013-01-15 17:03:00,
2013-01-15 09:08:00,34.2,30.3,30.51,West,270,0.4,1.1,86,0.00,,,0.00,WUHU216HW,2013-01-15 17:08:00,
2013-01-15 09:13:00,34.6,30.7,30.51,WNW,293,0.4,1.1,86,0.00,,,0.00,WUHU216HW,2013-01-15 17:13:00,
2013-01-15 09:18:00,34.9,30.8,30.51,SSE,158,0.0,1.1,85,0.00,,,0.00,WUHU216HW,2013-01-15 17:18:00,
2013-01-15 09:23:00,35.3,31.1,30.51,SW,225,1.1,1.8,85,0.00,,,0.00,WUHU216HW,2013-01-15 17:23:00,
2013-01-15 09:28:00,35.6,31.2,30.51,North,0,0.0,1.8,84,0.00,,,0.00,WUHU216HW,2013-01-15 17:28:00,
2013-01-15 09:33:00,36.2,31.1,30.51,NNW,338,0.0,1.1,82,0.00,,,0.00,WUHU216HW,2013-01-15 17:33:00,
2013-01-15 09:38:00,36.7,31.7,30.51,SW,225,0.0,0.9,82,0.00,,,0.00,WUHU216HW,2013-01-15 17:38:00,
2013-01-15 09:44:00,37.3,32.0,30.52,SW,225,1.1,1.3,81,0.00,,,0.00,WUHU216HW,2013-01-15 17:44:00,
2013-01-15 09:49:00,37.8,32.5,30.52,SW,225,0.7,1.6,81,0.00,,,0.00,WUHU216HW,2013-01-15 17:49:00,
2013-01-15 09:54:00,38.2,32.6,30.52,ESE,113,1.1,1.6,80,0.00,,,0.00,WUHU216HW,2013-01-15 17:54:00,
2013-01-15 09:59:00,38.5,32.6,30.52,SSE,158,0.7,1.6,79,0.00,,,0.00,WUHU216HW,2013-01-15 17:59:00,
2013-01-15 10:04:00,39.2,32.9,30.52,SSW,203,1.1,1.8,78,0.00,,,0.00,WUHU216HW,2013-01-15 18:04:00,
2013-01-15 10:09:00,39.8,33.5,30.52,SE,135,0.7,1.8,78,0.00,,,0.00,WUHU216HW,2013-01-15 18:09:00,
2013-01-15 10:14:00,40.0,32.7,30.52,NW,315,1.1,1.8,75,0.00,,,0.00,WUHU216HW,2013-01-15 18:14:00,
2013-01-15 10:19:00,40.5,33.5,30.52,WNW,293,0.9,1.1,76,0.00,,,0.00,WUHU216HW,2013-01-15 18:19:00,
2013-01-15 10:24:00,40.7,32.7,30.51,WSW,248,1.8,2.0,73,0.00,,,0.00,WUHU216HW,2013-01-15 18:24:00,
2013-01-15 10:29:00,41.0,33.0,30.51,ESE,113,1.3,2.0,73,0.00,,,0.00,WUHU216HW,2013-01-15 18:29:00,
2013-01-15 10:34:00,41.6,33.6,30.51,SW,225,0.0,1.6,73,0.00,,,0.00,WUHU216HW,2013-01-15 18:34:00,
2013-01-15 10:39:00,41.8,33.8,30.51,NW,315,0.7,1.8,73,0.00,,,0.00,WUHU216HW,2013-01-15 18:39:00,
2013-01-15 10:44:00,42.1,33.5,30.51,NW,315,0.4,1.8,71,0.00,,,0.00,WUHU216HW,2013-01-15 18:44:00,
2013-01-15 10:49:00,42.3,32.1,30.51,SW,225,0.7,1.1,67,0.00,,,0.00,WUHU216HW,2013-01-15 18:49:00,
2013-01-15 10:54:00,42.5,33.1,30.50,West,270,1.1,2.2,69,0.00,,,0.00,WUHU216HW,2013-01-15 18:54:00,
2013-01-15 10:59:00,42.8,33.5,30.49,NNW,338,0.4,2.2,69,0.00,,,0.00,WUHU216HW,2013-01-15 18:59:00,
2013-01-15 11:04:00,43.4,33.9,30.49,West,270,0.4,2.2,69,0.00,,,0.00,WUHU216HW,2013-01-15 19:04:00,
2013-01-15 11:09:00,43.7,33.8,30.49,SW,225,1.1,2.2,68,0.00,,,0.00,WUHU216HW,2013-01-15 19:09:00,
2013-01-15 11:14:00,43.9,32.9,30.48,NNW,338,0.4,2.0,65,0.00,,,0.00,WUHU216HW,2013-01-15 19:14:00,
2013-01-15 11:19:00,44.5,34.2,30.48,WSW,248,1.1,2.0,67,0.00,,,0.00,WUHU216HW,2013-01-15 19:19:00,
2013-01-15 11:24:00,45.0,34.3,30.48,WSW,248,1.3,2.0,66,0.00,,,0.00,WUHU216HW,2013-01-15 19:24:00,
2013-01-15 11:29:00,45.4,34.3,30.48,WNW,293,0.7,2.7,65,0.00,,,0.00,WUHU216HW,2013-01-15 19:29:00,
2013-01-15 11:34:00,45.7,34.6,30.47,SSE,158,0.4,3.1,65,0.00,,,0.00,WUHU216HW,2013-01-15 19:34:00,
2013-01-15 11:39:00,46.1,33.8,30.47,WSW,248,0.9,3.1,62,0.00,,,0.00,WUHU216HW,2013-01-15 19:39:00,
2013-01-15 11:44:00,46.3,34.8,30.47,WNW,293,3.1,3.6,64,0.00,,,0.00,WUHU216HW,2013-01-15 19:44:00,
2013-01-15 11:49:00,46.8,34.0,30.47,NW,315,0.2,3.6,61,0.00,,,0.00,WUHU216HW,2013-01-15 19:49:00,
2013-01-15 11:54:00,47.0,33.8,30.46,North,0,0.7,3.1,60,0.00,,,0.00,WUHU216HW,2013-01-15 19:54:00,
2013-01-15 11:59:00,47.2,34.4,30.46,NW,315,1.3,3.1,61,0.00,,,0.00,WUHU216HW,2013-01-15 19:59:00,
2013-01-15 12:04:00,47.2,34.0,30.46,NW,315,4.0,4.0,60,0.00,,,0.00,WUHU216HW,2013-01-15 20:04:00,
2013-01-15 12:09:00,47.7,34.9,30.46,NW,315,2.5,4.0,61,0.00,,,0.00,WUHU216HW,2013-01-15 20:09:00,
2013-01-15 12:14:00,48.1,34.9,30.45,West,270,2.0,3.6,60,0.00,,,0.00,WUHU216HW,2013-01-15 20:14:00,
2013-01-15 12:19:00,48.2,35.1,30.45,NW,315,0.9,3.8,60,0.00,,,0.00,WUHU216HW,2013-01-15 20:19:00,
2013-01-15 12:24:00,48.4,34.3,30.45,NW,315,1.1,3.8,58,0.00,,,0.00,WUHU216HW,2013-01-15 20:24:00,
2013-01-15 12:29:00,48.6,34.5,30.44,West,270,2.0,4.5,58,0.00,,,0.00,WUHU216HW,2013-01-15 20:29:00,
2013-01-15 12:34:00,48.8,32.9,30.44,WNW,293,1.8,5.6,54,0.00,,,0.00,WUHU216HW,2013-01-15 20:34:00,
2013-01-15 12:39:00,49.0,33.9,30.44,West,270,3.4,5.6,56,0.00,,,0.00,WUHU216HW,2013-01-15 20:39:00,
2013-01-15 12:44:00,49.3,33.8,30.44,NW,315,3.1,4.7,55,0.00,,,0.00,WUHU216HW,2013-01-15 20:44:00,
2013-01-15 12:49:00,49.5,32.6,30.44,NNW,338,0.7,4.7,52,0.00,,,0.00,WUHU216HW,2013-01-15 20:49:00,
2013-01-15 12:54:00,49.5,32.6,30.44,WNW,293,3.1,3.1,52,0.00,,,0.00,WUHU216HW,2013-01-15 20:54:00,
2013-01-15 12:59:00,49.7,31.3,30.44,North,0,1.8,3.6,49,0.00,,,0.00,WUHU216HW,2013-01-15 20:59:00,
2013-01-15 13:04:00,49.9,29.8,30.44,NW,315,2.5,3.6,46,0.00,,,0.00,WUHU216HW,2013-01-15 21:04:00,
2013-01-15 13:09:00,50.2,32.4,30.43,NW,315,2.7,3.4,50,0.00,,,0.00,WUHU216HW,2013-01-15 21:09:00,
2013-01-15 13:14:00,50.4,32.0,30.43,NW,315,1.8,4.5,49,0.00,,,0.00,WUHU216HW,2013-01-15 21:14:00,
2013-01-15 13:19:00,50.4,32.6,30.43,NW,315,0.7,4.5,50,0.00,,,0.00,WUHU216HW,2013-01-15 21:19:00,
2013-01-15 13:24:00,50.6,32.1,30.43,NW,315,2.5,4.7,49,0.00,,,0.00,WUHU216HW,2013-01-15 21:24:00,
2013-01-15 13:29:00,50.6,32.1,30.43,NNW,338,1.8,4.7,49,0.00,,,0.00,WUHU216HW,2013-01-15 21:29:00,
2013-01-15 13:34:00,50.9,32.0,30.43,NE,45,2.7,3.4,48,0.00,,,0.00,WUHU216HW,2013-01-15 21:34:00,
2013-01-15 13:39:00,51.1,31.5,30.43,NNW,338,1.8,3.4,47,0.00,,,0.00,WUHU216HW,2013-01-15 21:39:00,
2013-01-15 13:44:00,51.3,33.4,30.43,NNW,338,0.9,3.8,50,0.00,,,0.00,WUHU216HW,2013-01-15 21:44:00,
2013-01-15 13:49:00,51.5,30.2,30.43,NNW,338,2.7,5.6,44,0.00,,,0.00,WUHU216HW,2013-01-15 21:49:00,
2013-01-15 13:54:00,51.5,31.3,30.43,North,0,0.7,5.6,46,0.00,,,0.00,WUHU216HW,2013-01-15 21:54:00,
2013-01-15 13:59:00,51.7,31.4,30.43,NW,315,1.1,4.0,46,0.00,,,0.00,WUHU216HW,2013-01-15 21:59:00,
2013-01-15 14:04:00,51.8,32.8,30.43,NNE,23,0.4,3.6,48,0.00,,,0.00,WUHU216HW,2013-01-15 22:04:00,
2013-01-15 14:09:00,51.8,32.1,30.42,SSE,158,1.3,4.0,47,0.00,,,0.00,WUHU216HW,2013-01-15 22:09:00,
2013-01-15 14:14:00,51.8,31.1,30.42,NW,315,0.7,4.5,45,0.00,,,0.00,WUHU216HW,2013-01-15 22:14:00,
2013-01-15 14:19:00,52.2,33.0,30.42,WNW,293,2.0,4.5,48,0.00,,,0.00,WUHU216HW,2013-01-15 22:19:00,
2013-01-15 14:24:00,52.2,33.0,30.42,NNW,338,0.7,4.3,48,0.00,,,0.00,WUHU216HW,2013-01-15 22:24:00,
2013-01-15 14:29:00,52.2,33.0,30.41,NW,315,3.6,4.7,48,0.00,,,0.00,WUHU216HW,2013-01-15 22:29:00,
2013-01-15 14:34:00,52.2,32.0,30.42,NNW,338,0.4,4.7,46,0.00,,,0.00,WUHU216HW,2013-01-15 22:34:00,
2013-01-15 14:39:00,52.2,31.4,30.41,NW,315,1.1,3.8,45,0.00,,,0.00,WUHU216HW,2013-01-15 22:39:00,
2013-01-15 14:44:00,52.0,31.8,30.41,NNW,338,0.9,5.4,46,0.00,,,0.00,WUHU216HW,2013-01-15 22:44:00,
2013-01-15 14:49:00,52.0,30.7,30.42,NNW,338,0.4,5.4,44,0.00,,,0.00,WUHU216HW,2013-01-15 22:49:00,
2013-01-15 14:54:00,52.0,30.1,30.41,NNW,338,0.9,4.9,43,0.00,,,0.00,WUHU216HW,2013-01-15 22:54:00,
2013-01-15 14:59:00,52.0,30.7,30.42,NNW,338,1.6,4.9,44,0.00,,,0.00,WUHU216HW,2013-01-15 22:59:00,
2013-01-15 15:04:00,52.0,30.7,30.41,NW,315,1.1,2.5,44,0.00,,,0.00,WUHU216HW,2013-01-15 23:04:00,
2013-01-15 15:09:00,52.0,31.8,30.42,WSW,248,2.5,2.5,46,0.00,,,0.00,WUHU216HW,2013-01-15 23:09:00,
2013-01-15 15:14:00,52.2,32.0,30.42,NW,315,1.6,6.0,46,0.00,,,0.00,WUHU216HW,2013-01-15 23:14:00,
2013-01-15 15:19:00,52.0,30.7,30.42,NW,315,1.1,6.0,44,0.00,,,0.00,WUHU216HW,2013-01-15 23:19:00,
2013-01-15 15:24:00,52.0,31.2,30.42,NNW,338,2.0,3.1,45,0.00,,,0.00,WUHU216HW,2013-01-15 23:24:00,
2013-01-15 15:29:00,52.2,30.8,30.42,NNW,338,0.4,3.6,44,0.00,,,0.00,WUHU216HW,2013-01-15 23:29:00,
2013-01-15 15:34:00,52.2,32.0,30.42,WNW,293,1.6,3.6,46,0.00,,,0.00,WUHU216HW,2013-01-15 23:34:00,
2013-01-15 15:39:00,52.0,30.7,30.42,SSW,203,0.4,4.3,44,0.00,,,0.00,WUHU216HW,2013-01-15 23:39:00,
2013-01-15 15:44:00,52.0,29.5,30.42,NNW,338,0.7,4.3,42,0.00,,,0.00,WUHU216HW,2013-01-15 23:44:00,
2013-01-15 15:49:00,52.0,30.7,30.42,West,270,1.6,2.5,44,0.00,,,0.00,WUHU216HW,2013-01-15 23:49:00,
2013-01-15 15:54:00,51.8,30.0,30.42,NNW,338,0.7,4.0,43,0.00,,,0.00,WUHU216HW,2013-01-15 23:54:00,
2013-01-15 15:59:00,51.8,31.1,30.41,WNW,293,1.1,4.0,45,0.00,,,0.00,WUHU216HW,2013-01-15 23:59:00,
2013-01-15 16:04:00,51.8,31.6,30.42,NW,315,1.6,2.9,46,0.00,,,0.00,WUHU216HW,2013-01-16 00:04:00,
2013-01-15 16:09:00,51.5,31.9,30.42,NW,315,1.1,2.9,47,0.00,,,0.00,WUHU216HW,2013-01-16 00:09:00,
2013-01-15 16:14:00,51.5,31.9,30.42,NW,315,1.3,1.8,47,0.00,,,0.00,WUHU216HW,2013-01-16 00:14:00,
2013-01-15 16:19:00,51.5,32.4,30.42,WNW,293,1.1,2.7,48,0.00,,,0.00,WUHU216HW,2013-01-16 00:19:00,
2013-01-15 16:24:00,51.3,32.2,30.42,WNW,293,0.9,2.7,48,0.00,,,0.00,WUHU216HW,2013-01-16 00:24:00,
2013-01-15 16:29:00,51.1,32.0,30.42,NW,315,1.3,2.5,48,0.00,,,0.00,WUHU216HW,2013-01-16 00:29:00,
2013-01-15 16:34:00,50.9,32.0,30.42,NW,315,1.3,2.2,48,0.00,,,0.00,WUHU216HW,2013-01-16 00:34:00,
2013-01-15 16:39:00,50.4,32.0,30.42,NW,315,0.4,2.2,49,0.00,,,0.00,WUHU216HW,2013-01-16 00:39:00,
2013-01-15 16:44:00,50.0,32.2,30.42,NW,315,0.7,1.6,50,0.00,,,0.00,WUHU216HW,2013-01-16 00:44:00,
2013-01-15 16:49:00,49.5,32.6,30.42,NW,315,0.2,1.1,52,0.00,,,0.00,WUHU216HW,2013-01-16 00:49:00,
2013-01-15 16:54:00,49.0,32.5,30.42,NW,315,0.0,0.7,53,0.00,,,0.00,WUHU216HW,2013-01-16 00:54:00,
2013-01-15 16:59:00,48.6,32.7,30.42,NW,315,0.0,0.4,54,0.00,,,0.00,WUHU216HW,2013-01-16 00:59:00,
2013-01-15 17:04:00,47.9,32.4,30.42,NW,315,0.0,0.2,55,0.00,,,0.00,WUHU216HW,2013-01-16 01:04:00,
2013-01-15 17:09:00,47.5,32.6,30.42,NW,315,0.0,0.0,56,0.00,,,0.00,WUHU216HW,2013-01-16 01:09:00,
2013-01-15 17:14:00,47.3,32.9,30.41,NW,315,0.0,0.0,57,0.00,,,0.00,WUHU216HW,2013-01-16 01:14:00,
2013-01-15 17:19:00,47.0,32.5,30.42,NW,315,0.0,0.0,57,0.00,,,0.00,WUHU216HW,2013-01-16 01:19:00,
2013-01-15 17:24:00,46.4,32.4,30.42,NNW,338,0.0,0.0,58,0.00,,,0.00,WUHU216HW,2013-01-16 01:24:00,
2013-01-15 17:29:00,46.1,32.5,30.42,NNW,338,0.0,0.0,59,0.00,,,0.00,WUHU216HW,2013-01-16 01:29:00,